Time,TemperatureF,DewpointF,PressureIn,WindDirection,WindDirectionDegrees,WindSpeedMPH,WindSpeedGustMPH,Humidity,HourlyPrecipIn,Conditions,Clouds,dailyrainin,SoftwareType,DateUTC
2013-01-13 00:03:00,54.0,50.0,30.02,WSW,242,2.0,4.0,86,0.00,,,0.02,,2013-01-13 05:03:00,
2013-01-13 00:12:00,54.0,50.0,30.02,WSW,242,2.0,4.0,86,0.00,,,0.02,,2013-01-13 05:12:00,
2013-01-13 00:23:00,54.0,50.0,30.03,WSW,249,2.0,4.0,87,0.00,,,0.02,,2013-01-13 05:23:00,
2013-01-13 00:32:00,54.0,50.0,30.03,WSW,239,1.0,5.0,87,0.00,,,0.02,,2013-01-13 05:32:00,
2013-01-13 00:42:00,54.0,50.0,30.03,WSW,239,1.0,5.0,87,0.00,,,0.02,,2013-01-13 05:42:00,
2013-01-13 00:52:00,54.0,50.0,30.02,WSW,245,0.0,4.0,87,0.00,,,0.02,,2013-01-13 05:52:00,
2013-01-13 01:03:00,53.0,50.0,30.02,SSW,208,0.0,4.0,88,0.00,,,0.02,,2013-01-13 06:03:00,
2013-01-13 01:12:00,53.0,50.0,30.02,SSW,208,0.0,4.0,88,0.00,,,0.02,,2013-01-13 06:12:00,
2013-01-13 01:22:00,53.0,49.0,30.01,SW,217,2.0,4.0,87,0.00,,,0.02,,2013-01-13 06:22:00,
2013-01-13 01:32:00,53.0,49.0,30.01,WNW,301,1.0,5.0,87,0.00,,,0.02,,2013-01-13 06:32:00,
2013-01-13 01:42:00,53.0,49.0,30.01,WNW,301,1.0,5.0,87,0.00,,,0.02,,2013-01-13 06:42:00,
2013-01-13 01:52:00,54.0,50.0,30.01,WNW,297,1.0,5.0,86,0.00,,,0.02,,2013-01-13 06:52:00,
2013-01-13 02:02:00,54.0,50.0,30.02,SSW,208,1.0,4.0,85,0.00,,,0.02,,2013-01-13 07:02:00,
2013-01-13 02:12:00,54.0,50.0,30.02,SSW,208,1.0,4.0,85,0.00,,,0.02,,2013-01-13 07:12:00,
2013-01-13 02:22:00,54.0,50.0,30.02,SSW,192,0.0,4.0,85,0.00,,,0.02,,2013-01-13 07:22:00,
2013-01-13 02:32:00,55.0,50.0,30.01,SW,224,0.0,3.0,84,0.00,,,0.02,,2013-01-13 07:32:00,
2013-01-13 02:42:00,55.0,50.0,30.01,SW,224,0.0,3.0,84,0.00,,,0.02,,2013-01-13 07:42:00,
2013-01-13 02:52:00,54.0,50.0,30.01,SSW,208,2.0,5.0,85,0.00,,,0.02,,2013-01-13 07:52:00,
2013-01-13 03:02:00,54.0,50.0,30.01,WSW,253,1.0,5.0,85,0.00,,,0.02,,2013-01-13 08:02:00,
2013-01-13 03:12:00,54.0,50.0,30.01,WSW,253,1.0,5.0,85,0.00,,,0.02,,2013-01-13 08:12:00,
2013-01-13 03:22:00,54.0,50.0,30.00,WSW,243,2.0,4.0,86,0.00,,,0.02,,2013-01-13 08:22:00,
2013-01-13 03:32:00,54.0,50.0,30.00,SW,224,2.0,5.0,86,0.00,,,0.02,,2013-01-13 08:32:00,
2013-01-13 03:42:00,54.0,50.0,30.00,SW,224,2.0,5.0,86,0.00,,,0.02,,2013-01-13 08:42:00,
2013-01-13 03:52:00,54.0,50.0,30.00,SW,224,2.0,5.0,86,0.00,,,0.02,,2013-01-13 08:52:00,
2013-01-13 04:02:00,55.0,50.0,29.98,North,8,1.0,9.0,83,0.00,,,0.02,,2013-01-13 09:02:00,
2013-01-13 04:12:00,56.0,50.0,29.97,North,3,2.0,8.0,81,0.00,,,0.02,,2013-01-13 09:12:00,
2013-01-13 04:22:00,56.0,50.0,29.97,North,3,2.0,8.0,81,0.00,,,0.02,,2013-01-13 09:22:00,
2013-01-13 04:32:00,55.0,49.0,29.98,NW,309,1.0,6.0,81,0.00,,,0.02,,2013-01-13 09:32:00,
2013-01-13 04:42:00,55.0,49.0,29.98,NW,309,1.0,6.0,81,0.00,,,0.02,,2013-01-13 09:42:00,
2013-01-13 04:52:00,56.0,50.0,29.98,NW,320,3.0,11.0,80,0.00,,,0.02,,2013-01-13 09:52:00,
2013-01-13 05:03:00,59.0,51.0,29.97,NE,50,3.0,17.0,75,0.00,,,0.01,,2013-01-13 10:03:00,
2013-01-13 05:12:00,59.0,51.0,29.97,NE,50,3.0,17.0,75,0.00,,,0.01,,2013-01-13 10:12:00,
2013-01-13 05:22:00,59.0,51.0,29.97,WSW,238,5.0,12.0,74,0.00,,,0.01,,2013-01-13 10:22:00,
2013-01-13 05:32:00,59.0,51.0,29.96,SSW,202,1.0,13.0,74,0.00,,,0.01,,2013-01-13 10:32:00,
2013-01-13 05:42:00,59.0,51.0,29.96,SSW,202,1.0,13.0,74,0.00,,,0.01,,2013-01-13 10:42:00,
2013-01-13 05:52:00,59.0,51.0,29.96,WSW,252,1.0,10.0,74,0.00,,,0.01,,2013-01-13 10:52:00,
2013-01-13 06:02:00,59.0,51.0,29.96,WSW,252,1.0,10.0,74,0.00,,,0.01,,2013-01-13 11:02:00,
2013-01-13 06:12:00,59.0,51.0,29.96,WSW,252,1.0,10.0,74,0.00,,,0.01,,2013-01-13 11:12:00,
2013-01-13 06:22:00,59.0,51.0,29.96,NNW,330,4.0,13.0,75,0.00,,,0.01,,2013-01-13 11:22:00,
2013-01-13 06:33:00,58.0,50.0,29.98,NNW,339,2.0,10.0,76,0.00,,,0.01,,2013-01-13 11:33:00,
2013-01-13 06:42:00,58.0,50.0,29.98,NNW,339,2.0,10.0,76,0.00,,,0.01,,2013-01-13 11:42:00,
2013-01-13 06:52:00,58.0,50.0,29.98,West,274,2.0,5.0,76,0.00,,,0.01,,2013-01-13 11:52:00,
2013-01-13 07:03:00,59.0,51.0,29.98,NW,326,4.0,11.0,74,0.00,,,0.01,,2013-01-13 12:03:00,
2013-01-13 07:12:00,59.0,51.0,29.98,NW,326,4.0,11.0,74,0.00,,,0.01,,2013-01-13 12:12:00,
2013-01-13 07:22:00,59.0,51.0,29.98,NNW,340,3.0,12.0,74,0.00,,,0.01,,2013-01-13 12:22:00,
2013-01-13 07:33:00,60.0,51.0,30.00,SSW,205,6.0,11.0,72,0.00,,,0.01,,2013-01-13 12:33:00,
2013-01-13 07:42:00,60.0,51.0,30.00,SSW,205,6.0,11.0,72,0.00,,,0.01,,2013-01-13 12:42:00,
2013-01-13 07:52:00,61.0,51.0,30.00,West,268,2.0,17.0,70,0.00,,,0.01,,2013-01-13 12:52:00,
2013-01-13 08:03:00,61.0,51.0,30.00,West,268,2.0,17.0,70,0.00,,,0.01,,2013-01-13 13:03:00,
2013-01-13 08:12:00,61.0,51.0,30.00,West,268,2.0,17.0,70,0.00,,,0.01,,2013-01-13 13:12:00,
2013-01-13 08:22:00,61.0,52.0,30.02,ENE,60,2.0,8.0,72,0.00,,,0.01,,2013-01-13 13:22:00,
2013-01-13 08:33:00,61.0,51.0,30.03,SW,231,4.0,11.0,70,0.00,,,0.01,,2013-01-13 13:33:00,
2013-01-13 08:42:00,61.0,51.0,30.03,SW,231,4.0,11.0,70,0.00,,,0.01,,2013-01-13 13:42:00,
2013-01-13 08:53:00,62.0,52.0,30.03,SW,216,2.0,10.0,70,0.00,,,0.01,,2013-01-13 13:53:00,
2013-01-13 09:03:00,61.0,51.0,30.04,WNW,282,3.0,9.0,70,0.00,,,0.01,,2013-01-13 14:03:00,
2013-01-13 09:13:00,61.0,51.0,30.04,WNW,282,3.0,9.0,70,0.00,,,0.01,,2013-01-13 14:13:00,
2013-01-13 09:22:00,62.0,51.0,30.04,NW,322,3.0,13.0,68,0.00,,,0.01,,2013-01-13 14:22:00,
2013-01-13 09:33:00,62.0,51.0,30.04,SW,230,4.0,15.0,66,0.00,,,0.01,,2013-01-13 14:33:00,
2013-01-13 09:43:00,62.0,51.0,30.04,SW,230,4.0,15.0,66,0.00,,,0.01,,2013-01-13 14:43:00,
2013-01-13 09:53:00,62.0,50.0,30.05,NE,50,2.0,7.0,64,0.00,,,0.01,,2013-01-13 14:53:00,
2013-01-13 10:03:00,63.0,51.0,30.04,NE,55,1.0,6.0,64,0.00,,,0.00,,2013-01-13 15:03:00,
2013-01-13 10:13:00,63.0,51.0,30.04,NE,55,1.0,6.0,64,0.00,,,0.00,,2013-01-13 15:13:00,
2013-01-13 10:23:00,63.0,52.0,30.04,NW,314,0.0,2.0,67,0.00,,,0.00,,2013-01-13 15:23:00,
2013-01-13 10:33:00,63.0,53.0,30.04,East,94,0.0,2.0,69,0.00,,,0.00,,2013-01-13 15:33:00,
2013-01-13 10:43:00,63.0,53.0,30.04,East,94,0.0,2.0,69,0.00,,,0.00,,2013-01-13 15:43:00,
2013-01-13 10:52:00,63.0,53.0,30.04,East,94,0.0,2.0,69,0.00,,,0.00,,2013-01-13 15:52:00,
2013-01-13 11:03:00,65.0,52.0,30.03,NNE,32,0.0,4.0,63,0.00,,,0.00,,2013-01-13 16:03:00,
2013-01-13 11:13:00,65.0,52.0,30.03,NNE,32,0.0,4.0,63,0.00,,,0.00,,2013-01-13 16:13:00,
2013-01-13 11:23:00,65.0,51.0,30.02,NNW,341,1.0,9.0,61,0.00,,,0.00,,2013-01-13 16:23:00,
2013-01-13 11:33:00,66.0,53.0,30.02,WNW,284,1.0,7.0,62,0.00,,,0.00,,2013-01-13 16:33:00,
2013-01-13 11:43:00,66.0,53.0,30.02,WNW,284,1.0,7.0,62,0.00,,,0.00,,2013-01-13 16:43:00,
2013-01-13 11:53:00,67.0,53.0,30.01,NW,311,2.0,8.0,61,0.00,,,0.00,,2013-01-13 16:53:00,
2013-01-13 12:03:00,68.0,54.0,30.00,WNW,303,5.0,10.0,61,0.00,,,0.00,,2013-01-13 17:03:00,
2013-01-13 12:13:00,68.0,54.0,30.00,WNW,303,5.0,10.0,61,0.00,,,0.00,,2013-01-13 17:13:00,
2013-01-13 12:22:00,67.0,54.0,30.00,West,280,6.0,16.0,63,0.00,,,0.00,,2013-01-13 17:22:00,
2013-01-13 12:33:00,66.0,53.0,29.98,NW,318,2.0,15.0,62,0.00,,,0.00,,2013-01-13 17:33:00,
2013-01-13 12:43:00,66.0,53.0,29.98,NW,318,2.0,15.0,62,0.00,,,0.00,,2013-01-13 17:43:00,
2013-01-13 12:53:00,65.0,53.0,29.98,WNW,302,4.0,18.0,65,0.00,,,0.00,,2013-01-13 17:53:00,
2013-01-13 13:03:00,65.0,53.0,29.98,WSW,242,4.0,17.0,66,0.00,,,0.00,,2013-01-13 18:03:00,
2013-01-13 13:12:00,65.0,53.0,29.98,WSW,242,4.0,17.0,66,0.00,,,0.00,,2013-01-13 18:12:00,
2013-01-13 13:23:00,65.0,53.0,29.97,WNW,295,3.0,11.0,66,0.00,,,0.00,,2013-01-13 18:23:00,
2013-01-13 13:33:00,65.0,54.0,29.97,NW,318,4.0,14.0,67,0.00,,,0.00,,2013-01-13 18:33:00,
2013-01-13 13:43:00,65.0,54.0,29.97,NW,318,4.0,14.0,67,0.00,,,0.00,,2013-01-13 18:43:00,
2013-01-13 13:53:00,65.0,54.0,29.96,NNW,334,2.0,9.0,68,0.00,,,0.00,,2013-01-13 18:53:00,
2013-01-13 14:03:00,65.0,54.0,29.96,SE,141,4.0,10.0,68,0.00,,,0.00,,2013-01-13 19:03:00,
2013-01-13 14:12:00,65.0,54.0,29.96,SE,141,4.0,10.0,68,0.00,,,0.00,,2013-01-13 19:12:00,
2013-01-13 14:23:00,64.0,54.0,29.96,West,263,4.0,13.0,69,0.00,,,0.00,,2013-01-13 19:23:00,
2013-01-13 14:33:00,65.0,54.0,29.96,SE,131,2.0,11.0,67,0.00,,,0.00,,2013-01-13 19:33:00,
2013-01-13 14:43:00,65.0,54.0,29.96,SE,131,2.0,11.0,67,0.00,,,0.00,,2013-01-13 19:43:00,
2013-01-13 14:53:00,66.0,54.0,29.95,WSW,242,2.0,16.0,66,0.00,,,0.00,,2013-01-13 19:53:00,
2013-01-13 15:03:00,66.0,54.0,29.96,SE,131,1.0,11.0,66,0.00,,,0.00,,2013-01-13 20:03:00,
2013-01-13 15:12:00,66.0,54.0,29.96,SE,131,1.0,11.0,66,0.00,,,0.00,,2013-01-13 20:12:00,
2013-01-13 15:22:00,66.0,54.0,29.97,NW,313,3.0,10.0,65,0.00,,,0.00,,2013-01-13 20:22:00,
2013-01-13 15:33:00,66.0,53.0,29.97,South,182,2.0,8.0,64,0.00,,,0.00,,2013-01-13 20:33:00,
2013-01-13 15:43:00,66.0,53.0,29.97,South,182,2.0,8.0,64,0.00,,,0.00,,2013-01-13 20:43:00,
2013-01-13 15:53:00,65.0,53.0,29.97,WSW,244,4.0,10.0,65,0.00,,,0.00,,2013-01-13 20:53:00,
2013-01-13 16:03:00,65.0,53.0,29.97,WSW,244,4.0,10.0,65,0.00,,,0.00,,2013-01-13 21:03:00,
2013-01-13 16:13:00,65.0,53.0,29.97,WSW,244,4.0,10.0,65,0.00,,,0.00,,2013-01-13 21:13:00,
2013-01-13 16:23:00,65.0,53.0,29.98,West,269,2.0,10.0,66,0.00,,,0.00,,2013-01-13 21:23:00,
2013-01-13 16:33:00,65.0,54.0,29.98,West,278,3.0,9.0,67,0.00,,,0.00,,2013-01-13 21:33:00,
2013-01-13 16:43:00,65.0,54.0,29.98,West,278,3.0,9.0,67,0.00,,,0.00,,2013-01-13 21:43:00,
2013-01-13 16:52:00,65.0,54.0,29.98,West,278,3.0,9.0,67,0.00,,,0.00,,2013-01-13 21:52:00,
2013-01-13 17:03:00,65.0,54.0,29.98,West,278,3.0,9.0,67,0.00,,,0.00,,2013-01-13 22:03:00,
2013-01-13 17:23:00,63.0,53.0,29.99,NW,316,3.0,9.0,69,0.00,,,0.00,,2013-01-13 22:23:00,
2013-01-13 17:33:00,63.0,53.0,29.98,West,279,0.0,10.0,70,0.00,,,0.00,,2013-01-13 22:33:00,
2013-01-13 17:43:00,63.0,53.0,29.98,West,279,0.0,10.0,70,0.00,,,0.00,,2013-01-13 22:43:00,
2013-01-13 17:52:00,63.0,53.0,29.99,SW,230,0.0,1.0,71,0.00,,,0.00,,2013-01-13 22:52:00,
2013-01-13 18:03:00,63.0,53.0,29.99,WNW,303,0.0,7.0,71,0.00,,,0.00,,2013-01-13 23:03:00,
2013-01-13 18:12:00,63.0,53.0,29.99,WNW,303,0.0,7.0,71,0.00,,,0.00,,2013-01-13 23:12:00,
2013-01-13 18:23:00,62.0,53.0,29.99,WNW,302,0.0,1.0,73,0.00,,,0.00,,2013-01-13 23:23:00,
2013-01-13 18:33:00,62.0,53.0,29.98,WSW,241,0.0,6.0,72,0.00,,,0.00,,2013-01-13 23:33:00,
2013-01-13 18:43:00,62.0,53.0,29.98,WSW,241,0.0,6.0,72,0.00,,,0.00,,2013-01-13 23:43:00,
2013-01-13 18:53:00,61.0,53.0,30.00,ENE,64,0.0,2.0,74,0.00,,,0.00,,2013-01-13 23:53:00,
2013-01-13 19:03:00,60.0,52.0,29.99,WSW,251,0.0,1.0,76,0.00,,,0.00,,2013-01-14 00:03:00,
2013-01-13 19:13:00,60.0,52.0,29.99,WSW,251,0.0,1.0,76,0.00,,,0.00,,2013-01-14 00:13:00,
2013-01-13 19:22:00,59.0,52.0,29.99,WSW,253,0.0,3.0,77,0.00,,,0.00,,2013-01-14 00:22:00,
2013-01-13 19:33:00,59.0,52.0,29.98,SW,220,0.0,3.0,78,0.00,,,0.00,,2013-01-14 00:33:00,
2013-01-13 19:43:00,59.0,52.0,29.98,SW,220,0.0,3.0,78,0.00,,,0.00,,2013-01-14 00:43:00,
2013-01-13 19:52:00,58.0,52.0,29.98,SW,220,0.0,3.0,80,0.00,,,0.00,,2013-01-14 00:52:00,
2013-01-13 20:03:00,57.0,52.0,29.98,WSW,238,0.0,3.0,82,0.00,,,0.00,,2013-01-14 01:03:00,
2013-01-13 20:13:00,57.0,52.0,29.98,WSW,238,0.0,3.0,82,0.00,,,0.00,,2013-01-14 01:13:00,
2013-01-13 20:22:00,57.0,52.0,29.98,WSW,242,0.0,4.0,82,0.00,,,0.00,,2013-01-14 01:22:00,
2013-01-13 20:33:00,56.0,51.0,29.98,SW,214,0.0,3.0,84,0.00,,,0.00,,2013-01-14 01:33:00,
2013-01-13 20:42:00,56.0,51.0,29.98,SW,214,0.0,3.0,84,0.00,,,0.00,,2013-01-14 01:42:00,
2013-01-13 20:52:00,56.0,51.0,29.99,SW,214,0.0,1.0,84,0.00,,,0.00,,2013-01-14 01:52:00,
2013-01-13 21:03:00,57.0,53.0,29.99,SSW,209,0.0,0.0,85,0.00,,,0.00,,2013-01-14 02:03:00,
2013-01-13 21:12:00,57.0,53.0,29.99,SSW,209,0.0,0.0,85,0.00,,,0.00,,2013-01-14 02:12:00,
2013-01-13 21:22:00,57.0,52.0,29.98,SSW,209,0.0,2.0,84,0.00,,,0.00,,2013-01-14 02:22:00,
2013-01-13 21:33:00,57.0,52.0,29.98,SSW,209,0.0,2.0,84,0.00,,,0.00,,2013-01-14 02:33:00,
2013-01-13 21:42:00,57.0,52.0,29.98,SSW,209,0.0,2.0,84,0.00,,,0.00,,2013-01-14 02:42:00,
2013-01-13 21:53:00,58.0,53.0,29.98,SSW,209,0.0,2.0,84,0.00,,,0.00,,2013-01-14 02:53:00,
2013-01-13 22:03:00,58.0,53.0,29.98,SSW,209,0.0,2.0,84,0.00,,,0.00,,2013-01-14 03:03:00,
2013-01-13 22:12:00,58.0,53.0,29.98,SSW,209,0.0,2.0,84,0.00,,,0.00,,2013-01-14 03:12:00,
2013-01-13 22:22:00,58.0,53.0,29.98,SSW,209,0.0,1.0,84,0.00,,,0.00,,2013-01-14 03:22:00,
2013-01-13 22:33:00,57.0,53.0,29.99,SSW,209,0.0,2.0,86,0.00,,,0.00,,2013-01-14 03:33:00,
2013-01-13 22:42:00,57.0,53.0,29.99,SSW,209,0.0,2.0,86,0.00,,,0.00,,2013-01-14 03:42:00,
2013-01-13 22:52:00,57.0,53.0,29.99,SSW,209,0.0,1.0,88,0.00,,,0.00,,2013-01-14 03:52:00,
2013-01-13 23:03:00,57.0,54.0,30.00,SSW,209,0.0,2.0,91,0.01,,,0.01,,2013-01-14 04:03:00,
2013-01-13 23:12:00,57.0,54.0,30.00,SSW,209,0.0,2.0,91,0.01,,,0.01,,2013-01-14 04:12:00,
2013-01-13 23:22:00,56.0,54.0,30.01,SSW,209,0.0,2.0,93,0.02,,,0.02,,2013-01-14 04:22:00,
2013-01-13 23:32:00,56.0,54.0,30.00,SSW,209,0.0,1.0,94,0.03,,,0.03,,2013-01-14 04:32:00,
2013-01-13 23:42:00,56.0,54.0,30.00,SSW,209,0.0,1.0,94,0.03,,,0.03,,2013-01-14 04:42:00,
2013-01-13 23:52:00,56.0,54.0,30.00,SSW,209,0.0,1.0,94,0.04,,,0.04,,2013-01-14 04:52:00,